This is the latest recevied weather packets stored in our database for station/object KQ4OSL. If no packets are shown the sender has not sent any weather packets the latest 10 day(s).
| Time | Temp. | Humidity | Pressure | Rain* | Wind** | Luminosity | Snow |
|---|---|---|---|---|---|---|---|
| 1787782175 | 30° C | 63% | 1017.4 hPa | 0 mm | - | 90 W/m² | - |
| 1787781871 | 30° C | 62% | 1017.5 hPa | 0 mm | - | 94 W/m² | - |
| 1787781569 | 30.56° C | 61% | 1017.4 hPa | 0 mm | - | 95 W/m² | - |
| 1787781268 | 31.11° C | 60% | 1017.2 hPa | 0 mm | - | 96 W/m² | - |
| 1787780966 | 31.11° C | 59% | 1017.5 hPa | 0 mm | - | 100 W/m² | - |
| 1787780661 | 31.11° C | 55% | 1017.5 hPa | 0 mm | - | 98 W/m² | - |
| 1787780356 | 31.67° C | 56% | 1017.4 hPa | 0 mm | - | 153 W/m² | - |
| 1787780053 | 31.67° C | 53% | 1017.4 hPa | 0 mm | - | 176 W/m² | - |
| 1787779753 | 31.67° C | 53% | 1017.4 hPa | 0 mm | - | 186 W/m² | - |
| 1787779447 | 31.67° C | 58% | 1017.4 hPa | 0 mm | - | 180 W/m² | - |
| 1787779147 | 31.67° C | 56% | 1017.3 hPa | 0 mm | - | 204 W/m² | - |
| 1787778842 | 31.67° C | 57% | 1017.6 hPa | 0 mm | - | 217 W/m² | - |
| 1787778538 | 31.67° C | 59% | 1017.5 hPa | 0 mm | - | 254 W/m² | - |
| 1787778234 | 31.67° C | 57% | 1017.7 hPa | 0 mm | - | 292 W/m² | - |
| 1787777933 | 31.67° C | 58% | 1017.6 hPa | 0 mm | - | 338 W/m² | - |
| 1787777647 | 31.67° C | 64% | 1017.7 hPa | 0 mm | - | 286 W/m² | - |
| 1787777324 | 31.67° C | 60% | 1017.5 hPa | 0 mm | - | 256 W/m² | - |
| 1787777023 | 32.22° C | 61% | 1017.6 hPa | 0 mm | - | 267 W/m² | - |
| 1787776723 | 31.67° C | 60% | 1017.6 hPa | 0 mm | - | 351 W/m² | - |
| 1787776422 | 31.67° C | 57% | 1017.6 hPa | 0 mm | - | 251 W/m² | - |
| 1787776119 | 32.22° C | 54% | 1017.7 hPa | 0 mm | - | 370 W/m² | - |
| 1787775815 | 32.22° C | 52% | 1017.7 hPa | 0 mm | - | 425 W/m² | - |
| 1787775514 | 32.22° C | 57% | 1017.4 hPa | 0 mm | - | 450 W/m² | - |
| 1787775213 | 32.78° C | 58% | 1017.6 hPa | 0 mm | - | 480 W/m² | - |
| 1787774907 | 32.78° C | 59% | 1017.4 hPa | 0 mm | - | 466 W/m² | - |
* Rain latest hour (hover to see other rain measurements)
** Current wind speed in m/s (hover to see current wind gust speed)